C/2024 G4 ( PanSTARRS )

Japanese version
Home page
Updated on May 11, 2024

---------------------------------------------------------------------

* Profile

Discovery Date April 10, 2024
Magnitude 21.1 mag
Discoverer Pan-STARRS 2 telescope (Haleakala)

* Orbital Elements

Epoch 2024 Mar. 31.0 TT = JDT 2460400.5                                         
T 2026 Mar. 21.79457 TT                                 Rudenko                 
q   4.8989229            (2000.0)            P               Q                  
z  +0.0003135      Peri.  131.43244     +0.30436674     +0.91986876             
 +/-0.0000081      Node   153.00799     -0.95199426     +0.28484017             
e   0.9984644      Incl.   33.02978     +0.03267743     -0.26964337             
>From 93 observations 2021 Jan. 12-2024 May 6, mean residual 0".4.               

* Magnitudes Graph

        H = 11.0  G = 0.15

---------------------------------------------------------------------

The orbital elements are published on M.P.E.C. 2024-J123.
The magnitudes graphs are made with Comet for Windows.

---------------------------------------------------------------------

Copyright(C) Seiichi Yoshida (comet@aerith.net). All rights reserved.